User: anonymous   Login
Location: NJAA Observatory
(40.6819°N, 74.8979°W)
Time: 05:11:01
(UTC-05:00)
Language:

Cosmos 2237 Rocket - Orbit

View from above orbital plane
View from above orbital plane
View from above satellite
View from above satellite

Ground track
Ground track

The orbit data is extracted from the following two-line orbital elements,

1 22566U 93016B   15030.63153966  .00000359  00000-0  21017-3 0  2622
2 22566 071.0080 089.9810 0010266 002.6025 357.5149 14.14881600128417
Epoch (UTC): 30 January 2015 15:09:25
Eccentricity: 0.0010266
inclination: 71.0080°
perigee height: 835 km
apogee height: 850 km
right ascension of ascending node: 89.9810°
argument of perigee: 2.6025°
revolutions per day: 14.14881600
mean anomaly at epoch: 357.5149°
orbit number at epoch: 12841

The dashed part of the orbit path shows where the satellite is in the earth's shadow,  

DLR